Victoria, TX

4:22 AM CST on December 09, 2019 (GMT -0600)
Victoria Regional

Weather History for KVCT - October, 2019

Change the Weather History Date:

Saturday, October 19, 2019

  Actual Average Record
Temperature  
Mean Temperature 80 °F 72 °F  
Max Temperature 93 °F 83 °F 103 °F (1926)
Min Temperature 66 °F 60 °F 43 °F (1976)
Degree Days  
Heating Degree Days 0 1  
Month to date heating degree days 0 4  
Since 1 July heating degree days 0 5  
Cooling Degree Days 14 7  
Month to date cooling degree days 247 172  
Year to date cooling degree days 3512 2970  
Growing Degree Days 30 (Base 50)    
Moisture  
Dew Point 69 °F    
Average Humidity 81    
Maximum Humidity 100    
Minimum Humidity 47    
Precipitation  
Precipitation 0.00 in 0.17 in 0.68 in (1984)
Month to date precipitation 1.68 2.89  
Year to date precipitation 21.04 33.92  
Snow  
Snow 0.00 in 0.00 in 0.00 in (2002)
Month to date snowfall 0.0 0.0  
Since 1 July snowfall 0.0 0.0  
Since 1 September snowfall 0.0 0.0  
Snow Depth 0.00 in    
Sea Level Pressure  
Sea Level Pressure 29.75 in    
Wind  
Wind Speed 5 mph ()    
Max Wind Speed 18 mph    
Max Gust Speed 21 mph    
Visibility 6.9 miles    
Events      
T = Trace of Precipitation, MM = Missing Value Source: Averaged Metar Reports

Daily Weather History Graph

Daily Weather History Graph

Search for Another Location

Airport or City:

Astronomy

Oct. 19, 2019 Rise Set
Actual Time 7:31 AM CDT 6:53 PM CDT
Civil Twilight 7:07 AM CDT 7:17 PM CDT
Nautical Twilight 6:39 AM CDT 7:45 PM CDT
Astronomical Twilight 6:12 AM CDT 8:12 PM CDT
Moon 11:23 PM CDT (10/19) 12:45 PM CDT (10/19)
Length of Visible Light 12h 10m
Length of Day
11h 22m
Waning Gibbous, 69% of the Moon is Illuminated
Oct 19
Waning Gibbous
Oct 21
Last Quarter
Oct 27
New
Nov 4
First Quarter
Nov 12
Full

Hourly Weather History & Observations

Time (CDT) Temp. Heat Index Dew Point Humidity Pressure Visibility Wind Dir Wind Speed Gust Speed Precip Events Conditions
12:51 AM 68.0 °F - 66.0 °F 93% 29.75 in 8.0 mi SE 5.8 mph - N/A   Clear
1:51 AM 68.0 °F - 64.9 °F 90% 29.74 in 6.0 mi ESE 3.5 mph - N/A   Clear
2:51 AM 66.9 °F - 64.9 °F 93% 29.74 in 5.0 mi Calm Calm - N/A   Mostly Cloudy
3:51 AM 69.1 °F - 66.9 °F 93% 29.72 in 6.0 mi SSE 4.6 mph - N/A   Clear
4:51 AM 69.1 °F - 66.9 °F 93% 29.72 in 5.0 mi Calm Calm - N/A   Clear
5:26 AM 66.9 °F - 64.9 °F 93% 29.74 in 2.0 mi Calm Calm - N/A   Clear
5:51 AM 66.9 °F - 64.9 °F 93% 29.74 in 2.5 mi ENE 3.5 mph - N/A   Clear
5:58 AM 66.9 °F - 64.9 °F 93% 29.74 in 3.0 mi ENE 5.8 mph - N/A   Clear
6:06 AM 66.9 °F - 64.9 °F 93% 29.75 in 2.5 mi NE 5.8 mph - N/A   Clear
6:42 AM 66.9 °F - 64.9 °F 93% 29.75 in 1.2 mi ENE 4.6 mph - N/A   Clear
6:51 AM 66.9 °F - 64.9 °F 93% 29.75 in 1.5 mi NNE 5.8 mph - N/A   Clear
6:59 AM 66.9 °F - 64.9 °F 93% 29.76 in 3.0 mi NNE 5.8 mph - N/A   Partly Cloudy
7:51 AM 66.9 °F - 66.0 °F 97% 29.78 in 3.0 mi NNE 5.8 mph - N/A   Partly Cloudy
8:51 AM 71.1 °F - 69.1 °F 93% 29.78 in 3.0 mi Calm Calm - N/A   Partly Cloudy
9:51 AM 75.9 °F - 72.0 °F 87% 29.80 in 6.0 mi ENE 3.5 mph - N/A   Clear
10:51 AM 82.9 °F 89.4 °F 73.9 °F 74% 29.79 in 10.0 mi South 6.9 mph - N/A   Partly Cloudy
11:33 AM 87.1 °F 93.6 °F 72.0 °F 61% 29.80 in 10.0 mi South 12.7 mph - N/A   Mostly Cloudy
11:51 AM 86.0 °F 92.2 °F 72.0 °F 63% 29.79 in 10.0 mi SSW 9.2 mph - N/A   Scattered Clouds
12:13 PM 88.0 °F 94.7 °F 72.0 °F 59% 29.79 in 10.0 mi SSW 10.4 mph - N/A   Scattered Clouds
12:51 PM 89.1 °F 95.0 °F 71.1 °F 55% 29.77 in 10.0 mi WSW 9.2 mph - N/A   Partly Cloudy
1:51 PM 90.0 °F 96.4 °F 71.1 °F 54% 29.74 in 10.0 mi WSW 5.8 mph - N/A   Scattered Clouds
3:51 PM 91.9 °F 96.9 °F 69.1 °F 47% 29.70 in 10.0 mi South 5.8 mph - N/A   Partly Cloudy
4:51 PM 90.0 °F 96.4 °F 71.1 °F 54% 29.70 in 10.0 mi South 12.7 mph - N/A   Mostly Cloudy
5:51 PM 87.1 °F 94.5 °F 73.0 °F 63% 29.72 in 10.0 mi SSE 12.7 mph - N/A   Clear
6:51 PM 82.9 °F 88.8 °F 73.0 °F 72% 29.73 in 10.0 mi SSE 11.5 mph - N/A   Clear
7:51 PM 80.1 °F 84.5 °F 73.9 °F 81% 29.74 in 10.0 mi South 10.4 mph - N/A   Clear
8:51 PM 78.1 °F - 73.0 °F 84% 29.75 in 10.0 mi South 8.1 mph - N/A   Clear
9:51 PM 77.0 °F - 73.0 °F 88% 29.76 in 10.0 mi South 6.9 mph - N/A   Clear
10:51 PM 75.9 °F - 73.0 °F 91% 29.78 in 10.0 mi South 6.9 mph - N/A   Clear
11:51 PM 77.0 °F - 73.9 °F 90% 29.78 in 8.0 mi South 8.1 mph - N/A   Clear